Logan, UT

1:09 PM MDT on September 27, 2016 (GMT -0600)
Logan-Cache

Weather History for KLGU - October, 2012

Change the Weather History Date:

Friday, October 5, 2012

  Actual Average Record
Temperature  
Mean Temperature 45 °F -  
Max Temperature 60 °F 69 °F 83 °F (1988)
Min Temperature 30 °F 36 °F 26 °F (1998)
Degree Days  
Heating Degree Days 20    
Moisture  
Dew Point 18 °F    
Average Humidity 38    
Maximum Humidity 64    
Minimum Humidity 16    
Precipitation  
Precipitation 0.00 in - - ()
Sea Level Pressure  
Sea Level Pressure 30.14 in    
Wind  
Wind Speed 3 mph (NW)    
Max Wind Speed 8 mph    
Max Gust Speed -    
Visibility 10 miles    
Events      
Averages and records for this station are not official NWS values.
T = Trace of Precipitation, MM = Missing Value Source: NWS Daily Summary

Daily Weather History Graph

Daily Weather History Graph

Search for Another Location

Airport or City:

Trip Planner

Search our weather history database for the weather conditions in past years. The results will help you decide how hot, cold, wet, or windy it might be!

Date:

Astronomy

Oct. 05, 2012 Rise Set
Actual Time 7:29 AM MDT 7:01 PM MDT
Civil Twilight 7:01 AM MDT 7:29 PM MDT
Nautical Twilight 6:29 AM MDT 8:01 PM MDT
Astronomical Twilight 5:56 AM MDT 8:33 PM MDT
Moon 10:23 PM MDT (10/5) 12:44 PM MDT (10/5)
Length of Visible Light 12h 27m
Length of Day
11h 32m
Waning Gibbous, 73% of the Moon is Illuminated
Oct 5
Waning Gibbous
Oct 8
Last Quarter
Oct 15
New
Oct 21
First Quarter
Oct 29
Full

Hourly Weather History & Observations

Time (MDT) Temp. Windchill Dew Point Humidity Pressure Visibility Wind Dir Wind Speed Gust Speed Precip Events Conditions
12:51 AM 46.0 °F - 18.0 °F 33% 30.05 in 10.0 mi Calm Calm - N/A   Clear
1:51 AM 41.0 °F 35.8 °F 19.0 °F 41% 30.07 in 10.0 mi NNW 8.1 mph - N/A   Clear
2:51 AM 37.0 °F 33.3 °F 19.0 °F 48% 30.08 in 10.0 mi East 4.6 mph - N/A   Clear
3:51 AM 37.9 °F 35.5 °F 19.9 °F 48% 30.08 in 10.0 mi ESE 3.5 mph - N/A   Clear
4:51 AM 32.0 °F 28.7 °F 19.9 °F 61% 30.11 in 10.0 mi NE 3.5 mph - N/A   Clear
5:51 AM 30.0 °F 25.2 °F 19.0 °F 64% 30.14 in 10.0 mi NW 4.6 mph - N/A   Clear
6:51 AM 32.0 °F - 18.0 °F 56% 30.16 in 10.0 mi Calm Calm - N/A   Clear
7:51 AM 30.9 °F 27.5 °F 19.9 °F 64% 30.20 in 10.0 mi West 3.5 mph - N/A   Clear
8:51 AM 37.0 °F - 21.0 °F 52% 30.22 in 10.0 mi Calm Calm - N/A   Clear
9:51 AM 41.0 °F - 23.0 °F 49% 30.22 in 10.0 mi Calm Calm - N/A   Clear
10:51 AM 46.0 °F - 18.0 °F 33% 30.21 in 10.0 mi Calm Calm - N/A   Clear
11:51 AM 48.9 °F - 15.1 °F 26% 30.20 in 10.0 mi Calm Calm - N/A   Clear
12:51 PM 53.1 °F - 17.1 °F 24% 30.18 in 10.0 mi Calm Calm - N/A   Clear
1:51 PM 55.9 °F - 14.0 °F 19% 30.16 in 10.0 mi Variable 4.6 mph - N/A   Clear
2:51 PM 57.9 °F - 16.0 °F 19% 30.13 in 10.0 mi North 8.1 mph - N/A   Clear
3:51 PM 60.1 °F - 14.0 °F 16% 30.11 in 10.0 mi Variable 3.5 mph - N/A   Clear
4:51 PM 60.1 °F - 14.0 °F 16% 30.11 in 10.0 mi West 6.9 mph - N/A   Clear
5:51 PM 59.0 °F - 14.0 °F 17% 30.11 in 10.0 mi WSW 8.1 mph - N/A   Clear
6:51 PM 54.0 °F - 19.9 °F 26% 30.12 in 10.0 mi SW 5.8 mph - N/A   Clear
7:51 PM 46.0 °F 42.5 °F 21.9 °F 39% 30.16 in 10.0 mi NE 6.9 mph - N/A   Clear
8:51 PM 44.1 °F 41.5 °F 18.0 °F 35% 30.15 in 10.0 mi NNE 4.6 mph - N/A   Clear
10:51 PM 37.0 °F 34.5 °F 19.0 °F 48% 30.17 in 10.0 mi Variable 3.5 mph - N/A   Clear
11:51 PM 42.1 °F 40.2 °F 17.1 °F 37% 30.16 in 10.0 mi SSW 3.5 mph - N/A   Clear